Location: ??????
(41.4493°N, 22.5910°E)
Time: 02:38:32
(UTC+00:00)

Daily predictions for brighter satellites

Satellite Brightness Start Highest point End
(mag) Time Altitude Azimuth Time Altitude Azimuth Time Altitude Azimuth
Cosmos 1680 Rocket 4.3 00:05:14 10° N 00:10:21 46° ENE 00:10:23 46° ENE
USA 234 3.6 00:11:12 10° ENE 00:17:26 50° SE 00:17:26 50° SE
Nadezhda 3 Rocket 4.2 00:23:24 62° ESE 00:23:59 65° E 00:30:15 10° NNE
Cosmos 990 Rocket 4.3 00:33:09 64° N 00:33:09 64° N 00:37:35 10° NNE
AQUA 4.4 00:28:22 10° NNE 00:32:06 55° NNE 00:32:06 55° NNE
Resurs 1-4 Rocket 2.6 00:31:56 10° N 00:36:15 50° NW 00:36:15 50° NW
SJ 16-02 3.3 00:39:48 21° NNW 00:39:48 21° NNW 00:42:00 10° N
Okean 1-7 4.0 00:45:54 43° N 00:45:54 43° N 00:48:49 10° N
Meteor 2-4 Rocket 3.7 00:45:30 73° W 00:45:30 73° W 00:51:25 10° N
Cosmos 1937 Rocket 3.5 00:47:50 76° E 00:47:50 76° E 00:52:46 10° NNE
ARGOS Delta rocket 4.0 00:44:56 10° NNE 00:48:43 60° NE 00:48:43 60° NE
Cosmos 858 Rocket 4.4 00:51:28 80° E 00:51:28 80° E 00:56:38 10° NNE
Cosmos 2082 Rocket 2.2 00:48:07 10° NNW 00:53:01 62° WNW 00:53:01 62° WNW
CZ-2D R/B 2.8 00:49:58 10° N 00:54:48 41° WNW 00:54:48 41° WNW
Cosmos 1898 Rocket 3.6 00:55:43 64° NW 00:55:43 64° NW 01:00:46 10° NNE
Cosmos 1833 Rocket 4.3 00:52:23 10° NW 00:54:32 21° WNW 00:54:32 21° WNW
ARIANE 5 R/B 4.0 00:53:43 10° NNE 00:58:22 32° E 01:00:46 22° SE
SL-4 R/B 2.4 01:01:23 77° N 01:01:34 79° NNE 01:06:22 10° ESE
X-37B 2.8 01:04:57 26° NE 01:04:57 26° NE 01:06:33 10° ENE
Meteor 1-28 Rocket 4.1 01:07:47 43° N 01:07:47 43° N 01:10:22 10° N
Cosmos 372 Rocket 4.2 01:05:51 54° SSE 01:06:41 62° ESE 01:11:44 10° NNE
ADEOS II 2.0 01:02:41 10° N 01:07:54 66° WNW 01:08:12 65° W
Cosmos 1943 Rocket 2.3 01:10:36 52° S 01:11:55 72° ESE 01:17:34 10° NNE
NOSS 3-4 (A) 3.9 01:06:57 10° NW 01:14:05 83° NE 01:22:01 10° SE
NOSS 3-4 (C) 3.9 01:07:03 10° NW 01:14:12 83° NE 01:22:08 10° SE
CBERS-1 3.9 01:10:43 10° NNE 01:15:50 80° WNW 01:16:35 65° SW
Cosmos 2278 Rocket 3.7 01:15:40 21° WNW 01:16:30 22° NW 01:20:50 10° N
Cosmos 2112 Rocket 4.3 01:13:24 10° NNW 01:18:03 50° W 01:18:03 50° W
SL-08 R/B 4.4 01:14:57 10° SE 01:19:35 44° ENE 01:24:10 10° N
MSX 4.2 01:16:04 10° NNE 01:21:47 61° E 01:24:50 28° S
Cosmos 1356 Rocket 3.5 01:18:43 10° N 01:22:51 71° E 01:23:50 50° SE
IRS-1D 3.8 01:21:50 10° N 01:26:52 53° WNW 01:27:41 48° WSW
ATLAS 2AS CENTAUR R/B 3.1 01:21:07 10° NNW 01:28:26 65° NE 01:35:08 10° SE
Cosmos 1066 Rocket 4.2 01:27:02 43° SSW 01:29:04 80° W 01:34:59 10° N
IDEFIX/ARIANE 42P 2.5 01:24:04 10° NNE 01:29:19 85° WNW 01:31:00 45° SSW
Sich 1 Rocket 3.5 01:26:25 10° N 01:31:01 86° W 01:32:25 45° S
ATLAS 5 CENTAUR R/B 4.1 01:27:01 10° WNW 01:28:15 15° WNW 01:28:15 15° WNW
ADEOS Rocket 3.2 01:31:37 25° S 01:35:37 68° WSW 01:42:44 10° NNW
CZ-4B R/B 3.3 01:32:54 10° NNE 01:37:42 84° ESE 01:39:38 37° S
Cosmos 1674 Rocket 4.4 01:36:35 21° SSE 01:39:14 47° E 01:43:28 10° NNE
COSMOS 2441 4.5 01:35:02 10° NNE 01:39:55 74° ESE 01:42:24 29° S
Meteor 1-15 Rocket 4.1 01:34:57 10° N 01:40:34 88° W 01:45:40 13° S
Cosmos 2369 Rocket 2.4 01:37:49 29° S 01:40:39 66° ESE 01:46:14 10° NNE
USA 81 4.0 01:38:35 10° N 01:43:49 63° W 01:46:06 33° SSW
CZ-4C R/B 3.3 01:41:16 10° NW 01:48:22 43° WSW 01:56:14 10° S
Cosmos 1727 Rocket 4.3 01:42:42 12° S 01:48:26 68° E 01:54:40 10° NNE
SL-16 R/B 4.1 01:50:25 17° W 01:50:25 17° W 01:53:24 10° NW
Meteor 1-23 Rocket 4.2 01:48:03 31° SSW 01:50:52 71° W 01:56:39 10° N
Cosmos 2297 4.3 01:49:46 31° WSW 01:51:43 41° WNW 01:57:06 10° N
Cosmos 2150 Rocket 4.3 01:48:52 23° S 01:52:20 71° ESE 01:57:45 10° NNE
DELTA 2 R/B (1) 3.5 01:53:56 29° W 01:56:47 66° S 02:02:18 10° ESE
BREEZE-M DEB (TANK) 2.6 01:58:52 26° NNW 01:59:51 54° NE 02:03:20 10° ESE
USA 234 3.7 01:54:12 10° NE 02:00:32 53° NNW 02:04:47 21° W
IRS-1C 4.3 01:55:41 10° N 02:00:53 55° WNW 02:03:35 27° SW
CZ-2C R/B 3.8 01:57:21 10° NNE 02:01:01 44° E 02:04:35 11° S
Okean 2 4.2 01:57:36 12° SSE 02:01:21 51° E 02:05:24 10° NNE
ALOS 4.3 01:57:33 10° NE 02:01:29 26° E 02:05:23 10° SSE
ERS-1 4.4 01:57:24 10° N 02:02:20 66° WNW 02:05:12 25° SSW
CZ-2C R/B 3.0 02:02:18 10° NNE 02:07:04 57° E 02:11:57 10° S
CZ-2D R/B 3.4 02:05:42 10° N 02:09:51 69° WNW 02:12:25 23° SSW
GP-B 4.0 02:06:34 10° NNE 02:10:54 50° E 02:15:12 10° SSE
Cosmos 1766 3.4 02:07:57 10° NNW 02:11:52 53° W 02:14:27 19° SSW
Cosmos 1900 4.4 02:10:55 25° SW 02:13:53 69° WNW 02:18:58 10° NNE
Cosmos 1656 Rocket 3.7 02:10:11 16° SSW 02:14:33 77° ESE 02:20:01 10° NNE
Cosmos 1733 3.7 02:12:13 10° NNW 02:15:44 38° W 02:17:06 27° SW
Cosmos 1300 Rocket 4.4 02:12:27 10° NNW 02:16:24 31° W 02:17:58 24° SW
Cosmos 1461 4.3 02:13:56 10° S 02:18:19 40° ESE 02:22:43 10° NE
DNEPR-1 R/B 4.3 02:15:07 21° SW 02:19:19 66° NW 02:24:32 10° NNE
Cosmos 2151 Rocket 3.9 02:15:43 10° NNW 02:20:04 48° W 02:24:19 10° SSW
Cosmos 44 3.9 02:15:57 10° NNW 02:21:24 67° NE 02:26:36 10° SE
Cosmos 1048 Rocket 4.0 02:16:36 10° NNW 02:21:59 79° WSW 02:27:17 10° SSE
Cosmos 1818 4.3 02:17:33 10° NNW 02:22:59 59° NE 02:28:21 10° SE
Okean 2 Rocket 3.8 02:20:13 10° NNW 02:24:09 32° W 02:26:36 19° SW
Meteor 1-22 Rocket 4.2 02:19:51 10° NNW 02:25:28 67° W 02:31:17 10° S
Meteor 2-10 4.2 02:20:56 10° N 02:26:39 86° E 02:32:09 10° S
Milstar 3 4.1 02:22:39 18° SW 02:27:26 34° S 02:37:25 10° ESE
Cosmos 1975 Rocket 4.4 02:26:00 10° SSE 02:30:10 41° E 02:34:21 10° NNE
ARIANE 5 R/B 3.4 02:32:47 10° N 02:37:24 32° WNW 02:41:07 14° WSW
Cosmos 1470 2.6 02:34:50 10° N 02:38:43 80° W 02:42:33 10° S
SL-24 R/B - RUBIN 2 3.8 02:33:36 10° NW 02:39:02 75° WSW 02:43:46 10° SSE
X-37B 1.7 02:37:16 10° WNW 02:40:20 42° N 02:43:23 10° ENE
SL-4 R/B 3.6 02:37:16 10° W 02:40:51 21° SW 02:44:21 10° S
Cosmos 494 Rocket 3.9 02:36:56 10° NNW 02:42:10 71° WSW 02:47:19 10° S
Okean 1 Rocket 3.2 02:41:08 10° NNW 02:45:31 54° W 02:49:50 10° S
Cosmos 1802 Rocket 4.1 02:39:24 10° N 02:45:41 82° E 02:51:51 10° S
ASTRO E2 4.5 02:44:33 13° SW 02:46:23 17° S 02:48:57 10° SSE
PAYLOAD A 4.2 02:42:50 10° N 02:47:46 53° WNW 02:52:29 10° SSW
Cosmos 1707 2.6 02:43:58 10° SSW 02:47:49 75° W 02:51:41 10° N
Cosmos 1726 2.0 02:44:57 10° NNW 02:48:41 71° W 02:52:22 10° S
GRACE-FO 2 4.5 02:45:51 10° N 02:49:29 86° W 02:53:04 10° S
Cosmos 1943 Rocket 3.8 02:52:17 10° W 02:56:14 19° NW 03:00:13 10° N
Cosmos 1400 Rocket 3.2 02:54:30 10° NNW 02:58:27 44° W 03:02:22 10° SSW
RESURS DK-1 3.4 02:56:10 10° NNW 03:00:16 52° ENE 03:04:19 10° SE
IRAS Rocket 4.5 02:55:28 10° S 03:00:43 46° W 03:06:04 10° NNW
USA 306 4.1 03:00:19 10° NW 03:04:28 46° NNE 03:08:37 10° ESE
SL-24 R/B 3.8 03:01:28 10° S 03:05:27 60° W 03:09:09 10° NNW
Cosmos 1867 3.7 03:01:00 10° SSW 03:06:25 82° ESE 03:11:55 10° NE
Cosmos 1607 4.1 03:01:03 10° SW 03:07:28 80° WNW 03:14:00 10° NNE
Cosmos 2016 Rocket 4.0 03:01:47 10° N 03:08:10 81° W 03:14:26 10° S
Cosmos 2100 Rocket 4.3 03:07:00 10° NNW 03:12:50 45° W 03:18:41 10° SSW
MOS 1 Rocket 4.1 03:07:50 10° SSE 03:13:14 72° ENE 03:18:38 10° N
ATLAS 2AS CENTAUR R/B 3.6 03:13:04 10° NW 03:18:43 26° WSW 03:24:02 10° SSW
